NORTHEAST SUFFOLK  -  Winter Weather Advisory Winter Weather Advisory        NORTHERN NASSAU  -  Winter Weather Advisory Winter Weather Advisory        NORTHWEST SUFFOLK  -  Winter Weather Advisory Winter Weather Advisory        SOUTHEAST SUFFOLK  -  Winter Weather Advisory Winter Weather Advisory        SOUTHERN NASSAU  -  Winter Weather Advisory Winter Weather Advisory        SOUTHWEST SUFFOLK  -  Winter Weather Advisory Winter Weather Advisory      

Active alerts

Northern Nassau
  Details for Northern Nassau Winter Weather Advisory
Southern Nassau
  Details for Southern Nassau Winter Weather Advisory
Northwest Suffolk
  Details for Northwest Suffolk Winter Weather Advisory
Southwest Suffolk
  Details for Southwest Suffolk Winter Weather Advisory
Northeast Suffolk
  Details for Northeast Suffolk Winter Weather Advisory
Southeast Suffolk
  Details for Southeast Suffolk Winter Weather Advisory


WXM80 ListenWXM80 Stop

You find our weather info also at:

UK Metoffice

WeatherCloud

Weather Underground

Northeastern Weather Network

AWEKAS

Citizen Weather Observer Program (CWOP)

HAMweather, WeatherForYou, PWS Weather


Weather Underground History page Text

Daily Summary for November 27, 2016 Units:  English    Metric   Both
« Previous Day
Next Day »
Daily Weekly Monthly Yearly Custom
  High: Low: Average:
Temperature: 50.6 °F 38.3 °F 44.2 °F
Dew Point: 38.5 °F 32.4 °F 35.5 °F
Humidity: 86 % 57 % 72 %
Wind Speed: 9.7 mph 0.0 mph 3.9 mph
Wind Gust: 19.0 mph - -
Wind:- - WNW
Pressure: 30.09 in 30.01 in -
Precipitation: 0.00 in    
Historical Graphs
 
 
Tabular Data for November 27, 2016
Time Temperature Dew Point Pressure Wind Wind Speed Wind Gust Humidity Rainfall Rate (Hourly)
00:03 43.1 °F 38.3 °F 30.03 in NNW 4.3 mph 5.8 mph 83 % 0.00 in
00:08 43.0 °F 38.2 °F 30.04 in North 3.7 mph 8.1 mph 83 % 0.00 in
00:13 43.0 °F 38.5 °F 30.03 in NW 4.6 mph 8.1 mph 84 % 0.00 in
00:18 42.9 °F 38.1 °F 30.03 in NNW 4.9 mph 9.2 mph 83 % 0.00 in
00:23 42.8 °F 38.0 °F 30.03 in NW 3.9 mph 9.2 mph 83 % 0.00 in
00:28 42.7 °F 37.9 °F 30.03 in North 4.1 mph 9.2 mph 83 % 0.00 in
00:34 42.6 °F 37.5 °F 30.03 in NW 0.2 mph 3.5 mph 82 % 0.00 in
00:39 42.5 °F 37.7 °F 30.03 in North 3.0 mph 5.8 mph 83 % 0.00 in
00:44 42.5 °F 37.7 °F 30.03 in North 1.7 mph 4.6 mph 83 % 0.00 in
00:49 42.4 °F 37.6 °F 30.03 in NW 4.6 mph 6.9 mph 83 % 0.00 in
00:54 42.3 °F 37.5 °F 30.03 in West 3.5 mph 6.9 mph 83 % 0.00 in
00:59 42.3 °F 37.8 °F 30.03 in North 3.1 mph 5.0 mph 84 % 0.00 in
01:04 42.2 °F 37.7 °F 30.03 in North 4.1 mph 8.0 mph 84 % 0.00 in
01:09 42.2 °F 37.7 °F 30.03 in NNW 1.1 mph 3.5 mph 84 % 0.00 in
01:14 42.2 °F 37.4 °F 30.03 in NW 1.9 mph 3.5 mph 83 % 0.00 in
01:19 42.1 °F 37.3 °F 30.03 in NW 3.9 mph 5.8 mph 83 % 0.00 in
01:25 42.1 °F 37.3 °F 30.03 in North 2.3 mph 9.2 mph 83 % 0.00 in
01:30 42.0 °F 37.2 °F 30.03 in NNE 0.4 mph 3.5 mph 83 % 0.00 in
01:35 42.0 °F 37.2 °F 30.03 in NNW 3.3 mph 5.8 mph 83 % 0.00 in
01:40 41.9 °F 37.1 °F 30.04 in NW 2.0 mph 6.0 mph 83 % 0.00 in
01:45 41.9 °F 37.1 °F 30.04 in NW 1.0 mph 6.0 mph 83 % 0.00 in
01:50 41.9 °F 37.1 °F 30.04 in NNW 1.7 mph 5.8 mph 83 % 0.00 in
01:55 41.8 °F 37.3 °F 30.04 in NNW 3.0 mph 8.0 mph 84 % 0.00 in
02:00 41.7 °F 37.2 °F 30.04 in NNW 3.7 mph 5.8 mph 84 % 0.00 in
02:05 41.6 °F 37.1 °F 30.04 in West 3.2 mph 6.9 mph 84 % 0.00 in
02:10 41.6 °F 36.8 °F 30.04 in NNE 5.0 mph 8.1 mph 83 % 0.00 in
02:15 41.5 °F 36.7 °F 30.04 in NNW 5.1 mph 8.1 mph 83 % 0.00 in
02:20 41.5 °F 36.7 °F 30.04 in NNW 2.8 mph 7.0 mph 83 % 0.00 in
02:25 41.4 °F 36.6 °F 30.04 in NW 3.4 mph 5.8 mph 83 % 0.00 in
02:30 41.3 °F 36.5 °F 30.04 in North 1.7 mph 4.6 mph 83 % 0.00 in
02:36 41.3 °F 36.2 °F 30.05 in NW 3.6 mph 5.8 mph 82 % 0.00 in
02:41 41.3 °F 36.5 °F 30.05 in NW 0.9 mph 2.3 mph 83 % 0.00 in
02:46 41.2 °F 36.4 °F 30.05 in NW 1.4 mph 5.0 mph 83 % 0.00 in
02:51 41.2 °F 36.7 °F 30.05 in WNW 3.0 mph 9.2 mph 84 % 0.00 in
02:56 41.1 °F 36.3 °F 30.05 in North 0.8 mph 8.1 mph 83 % 0.00 in
03:01 41.1 °F 36.3 °F 30.05 in North 3.1 mph 10.0 mph 83 % 0.00 in
03:06 41.1 °F 36.3 °F 30.05 in West 4.7 mph 10.4 mph 83 % 0.00 in
03:11 41.1 °F 36.3 °F 30.05 in NNW 2.0 mph 6.0 mph 83 % 0.00 in
03:16 41.1 °F 36.3 °F 30.05 in NNW 2.9 mph 6.0 mph 83 % 0.00 in
03:21 41.1 °F 36.3 °F 30.04 in North 3.4 mph 8.1 mph 83 % 0.00 in
03:27 41.0 °F 35.9 °F 30.04 in WNW 0.9 mph 4.6 mph 82 % 0.00 in
03:32 41.0 °F 35.9 °F 30.04 in NNW 5.7 mph 10.4 mph 82 % 0.00 in
03:37 40.9 °F 35.5 °F 30.04 in NW 4.9 mph 5.0 mph 81 % 0.00 in
03:42 40.8 °F 35.4 °F 30.04 in NNW 3.9 mph 10.4 mph 81 % 0.00 in
03:47 40.8 °F 35.4 °F 30.04 in NW 2.3 mph 6.0 mph 81 % 0.00 in
03:52 40.8 °F 35.7 °F 30.05 in WNW 2.7 mph 9.2 mph 82 % 0.00 in
03:57 40.7 °F 35.6 °F 30.05 in NW 3.2 mph 10.4 mph 82 % 0.00 in
04:02 40.8 °F 36.0 °F 30.04 in NW 4.6 mph 8.1 mph 83 % 0.00 in
04:07 40.7 °F 35.9 °F 30.04 in WNW 0.2 mph 2.3 mph 83 % 0.00 in
04:12 40.7 °F 35.9 °F 30.05 in NNW 2.2 mph 5.8 mph 83 % 0.00 in
04:18 40.7 °F 36.2 °F 30.05 in NW 3.1 mph 5.0 mph 84 % 0.00 in
04:23 40.6 °F 36.1 °F 30.05 in NW 3.6 mph 10.4 mph 84 % 0.00 in
04:28 40.6 °F 36.1 °F 30.05 in NNW 3.7 mph 9.2 mph 84 % 0.00 in
04:33 40.5 °F 36.0 °F 30.05 in West 2.8 mph 7.0 mph 84 % 0.00 in
04:38 40.5 °F 35.7 °F 30.04 in WNW 4.4 mph 9.2 mph 83 % 0.00 in
04:43 40.4 °F 35.6 °F 30.05 in WNW 2.5 mph 5.0 mph 83 % 0.00 in
04:48 40.3 °F 35.5 °F 30.05 in WNW 2.5 mph 4.6 mph 83 % 0.00 in
04:53 40.3 °F 35.5 °F 30.05 in NW 2.0 mph 3.5 mph 83 % 0.00 in
04:58 40.2 °F 35.4 °F 30.05 in WNW 0.6 mph 3.5 mph 83 % 0.00 in
05:03 40.2 °F 35.4 °F 30.05 in NW 3.8 mph 5.8 mph 83 % 0.00 in
05:09 40.0 °F 35.3 °F 30.05 in Calm   2.3 mph 83 % 0.00 in
05:14 39.9 °F 35.2 °F 30.05 in Calm   2.3 mph 83 % 0.00 in
05:19 39.8 °F 35.1 °F 30.05 in Calm     83 % 0.00 in
05:24 39.7 °F 35.0 °F 30.05 in NNW 0.3 mph 3.5 mph 83 % 0.00 in
05:29 39.6 °F 34.9 °F 30.05 in NW 4.5 mph 8.1 mph 83 % 0.00 in
05:34 39.5 °F 34.5 °F 30.05 in WNW 1.9 mph 5.8 mph 82 % 0.00 in
05:39 39.5 °F 34.8 °F 30.05 in WNW 1.1 mph 2.3 mph 83 % 0.00 in
05:44 39.5 °F 34.8 °F 30.05 in WNW 0.4 mph 4.6 mph 83 % 0.00 in
05:49 39.5 °F 34.8 °F 30.05 in WNW 1.7 mph 3.5 mph 83 % 0.00 in
05:54 39.4 °F 34.7 °F 30.05 in WSW 0.2 mph 2.3 mph 83 % 0.00 in
05:59 39.3 °F 34.6 °F 30.05 in WSW 2.0 mph 3.5 mph 83 % 0.00 in
06:04 39.2 °F 34.5 °F 30.06 in WNW 2.1 mph 3.5 mph 83 % 0.00 in
06:09 39.1 °F 34.4 °F 30.06 in West 2.1 mph 4.6 mph 83 % 0.00 in
06:15 39.0 °F 34.3 °F 30.06 in West 1.4 mph 3.5 mph 83 % 0.00 in
06:20 38.8 °F 34.4 °F 30.06 in WNW 1.2 mph 3.5 mph 84 % 0.00 in
06:25 38.8 °F 34.4 °F 30.06 in West 0.1 mph 2.3 mph 84 % 0.00 in
06:30 38.7 °F 34.3 °F 30.06 in WNW 1.2 mph 3.5 mph 84 % 0.00 in
06:35 38.6 °F 34.2 °F 30.06 in Calm   3.0 mph 84 % 0.00 in
06:40 38.5 °F 34.4 °F 30.06 in West 1.0 mph 3.5 mph 85 % 0.00 in
06:45 38.4 °F 34.3 °F 30.06 in West 1.0 mph 3.0 mph 85 % 0.00 in
06:50 38.4 °F 34.3 °F 30.06 in WNW 2.0 mph 5.0 mph 85 % 0.00 in
06:55 38.3 °F 34.5 °F 30.06 in WNW 1.9 mph 5.8 mph 86 % 0.00 in
07:00 38.3 °F 34.5 °F 30.06 in West 1.4 mph 5.0 mph 86 % 0.00 in
07:10 38.4 °F 34.6 °F 30.06 in WNW 0.7 mph 2.3 mph 86 % 0.00 in
07:15 38.4 °F 34.6 °F 30.07 in WSW 0.6 mph 2.3 mph 86 % 0.00 in
07:20 38.4 °F 34.6 °F 30.06 in West 0.3 mph 3.5 mph 86 % 0.00 in
07:25 38.5 °F 34.7 °F 30.07 in WSW 0.3 mph 3.5 mph 86 % 0.00 in
07:30 38.6 °F 34.5 °F 30.06 in West 0.9 mph 3.5 mph 85 % 0.00 in
07:41 38.9 °F 35.1 °F 30.07 in West 0.7 mph 4.6 mph 86 % 0.00 in
07:46 39.2 °F 35.1 °F 30.07 in WSW 1.8 mph 3.0 mph 85 % 0.00 in
07:51 39.5 °F 35.4 °F 30.07 in SW 0.5 mph 3.5 mph 85 % 0.00 in
07:56 39.8 °F 35.7 °F 30.07 in WNW 1.1 mph 3.5 mph 85 % 0.00 in
08:01 40.2 °F 35.4 °F 30.07 in WSW 4.5 mph 6.9 mph 83 % 0.00 in
08:06 40.6 °F 35.5 °F 30.07 in SW 1.7 mph 3.5 mph 82 % 0.00 in
08:11 40.9 °F 35.5 °F 30.07 in NW 3.2 mph 6.9 mph 81 % 0.00 in
08:16 41.2 °F 35.8 °F 30.07 in West 2.1 mph 3.5 mph 81 % 0.00 in
08:22 41.4 °F 36.0 °F 30.07 in West 1.9 mph 3.5 mph 81 % 0.00 in
08:27 41.6 °F 35.9 °F 30.07 in WNW 5.2 mph 8.0 mph 80 % 0.00 in
08:32 41.8 °F 36.1 °F 30.07 in WNW 2.3 mph 3.5 mph 80 % 0.00 in
08:37 42.0 °F 36.3 °F 30.07 in WSW 1.4 mph 4.6 mph 80 % 0.00 in
08:42 42.2 °F 36.2 °F 30.07 in West 2.9 mph 4.6 mph 79 % 0.00 in
08:47 42.3 °F 36.3 °F 30.07 in West 3.5 mph 10.4 mph 79 % 0.00 in
08:52 42.5 °F 36.4 °F 30.07 in WNW 2.2 mph 6.0 mph 79 % 0.00 in
08:57 42.7 °F 36.6 °F 30.07 in WNW 4.5 mph 8.1 mph 79 % 0.00 in
09:02 42.9 °F 36.8 °F 30.07 in WNW 5.1 mph 10.4 mph 79 % 0.00 in
09:07 43.0 °F 36.9 °F 30.06 in WNW 4.4 mph 6.9 mph 79 % 0.00 in
09:12 43.2 °F 36.8 °F 30.07 in NNW 3.9 mph 8.0 mph 78 % 0.00 in
09:18 43.3 °F 37.2 °F 30.07 in NW 1.9 mph 4.0 mph 79 % 0.00 in
09:23 43.7 °F 37.6 °F 30.06 in NNW 2.4 mph 5.8 mph 79 % 0.00 in
09:28 44.1 °F 38.0 °F 30.06 in WNW 4.5 mph 6.0 mph 79 % 0.00 in
09:33 44.5 °F 37.7 °F 30.07 in West 5.4 mph 11.5 mph 77 % 0.00 in
09:38 44.9 °F 37.8 °F 30.07 in West 4.3 mph 13.0 mph 76 % 0.00 in
09:43 45.2 °F 37.4 °F 30.07 in North 4.0 mph 10.4 mph 74 % 0.00 in
09:48 45.5 °F 37.7 °F 30.07 in NW 5.0 mph 11.5 mph 74 % 0.00 in
09:53 45.7 °F 37.9 °F 30.07 in WNW 5.5 mph 10.4 mph 74 % 0.00 in
09:58 45.9 °F 37.7 °F 30.07 in West 4.9 mph 6.9 mph 73 % 0.00 in
10:04 46.1 °F 38.3 °F 30.07 in West 0.8 mph 9.2 mph 74 % 0.00 in
10:09 46.3 °F 38.1 °F 30.07 in West 4.8 mph 8.0 mph 73 % 0.00 in
10:14 46.5 °F 38.0 °F 30.07 in WNW 4.0 mph 6.9 mph 72 % 0.00 in
10:19 46.8 °F 38.2 °F 30.07 in WNW 5.1 mph 8.1 mph 72 % 0.00 in
10:24 46.9 °F 38.3 °F 30.06 in NW 1.2 mph 3.5 mph 72 % 0.00 in
10:29 47.1 °F 38.5 °F 30.06 in NW 2.4 mph 6.0 mph 72 % 0.00 in
10:34 47.3 °F 38.4 °F 30.07 in NW 7.2 mph 11.0 mph 71 % 0.00 in
10:39 47.4 °F 38.1 °F 30.06 in NW 6.1 mph 9.0 mph 70 % 0.00 in
10:44 47.5 °F 38.2 °F 30.06 in NNW 3.3 mph 6.0 mph 70 % 0.00 in
10:49 47.6 °F 37.9 °F 30.06 in WNW 4.6 mph 9.2 mph 69 % 0.00 in
10:55 47.5 °F 37.5 °F 30.06 in NNW 6.6 mph 10.4 mph 68 % 0.00 in
11:00 47.4 °F 38.5 °F 30.06 in North 1.5 mph 6.0 mph 71 % 0.00 in
11:05 47.4 °F 38.1 °F 30.05 in WNW 2.4 mph 3.5 mph 70 % 0.00 in
11:10 47.3 °F 37.6 °F 30.05 in NW 6.6 mph 11.5 mph 69 % 0.00 in
11:15 47.2 °F 37.2 °F 30.05 in NNW 3.0 mph 12.0 mph 68 % 0.00 in
11:20 47.2 °F 37.5 °F 30.04 in NW 5.0 mph 8.0 mph 69 % 0.00 in
11:25 47.2 °F 37.5 °F 30.04 in NW 3.0 mph 9.0 mph 69 % 0.00 in
11:30 47.2 °F 37.2 °F 30.04 in NW 6.0 mph 12.0 mph 68 % 0.00 in
11:35 47.2 °F 36.8 °F 30.04 in NW 5.0 mph 10.0 mph 67 % 0.00 in
11:40 47.2 °F 37.2 °F 30.03 in North 3.7 mph 7.0 mph 68 % 0.00 in
11:45 47.2 °F 37.5 °F 30.04 in NNW 4.4 mph 8.1 mph 69 % 0.00 in
11:50 47.4 °F 37.7 °F 30.04 in NW 3.0 mph 8.0 mph 69 % 0.00 in
11:55 47.5 °F 37.8 °F 30.03 in NNW 2.0 mph 5.8 mph 69 % 0.00 in
12:00 47.7 °F 37.7 °F 30.04 in WNW 3.2 mph 8.1 mph 68 % 0.00 in
12:05 47.8 °F 37.7 °F 30.03 in NNE 2.9 mph 4.6 mph 68 % 0.00 in
12:10 48.0 °F 38.3 °F 30.03 in NW 1.4 mph 3.5 mph 69 % 0.00 in
12:16 48.3 °F 37.8 °F 30.02 in North 5.2 mph 10.4 mph 67 % 0.00 in
12:21 48.7 °F 37.8 °F 30.02 in North 3.4 mph 6.9 mph 66 % 0.00 in
12:26 49.0 °F 36.9 °F 30.02 in NW 4.0 mph 10.4 mph 63 % 0.00 in
12:31 49.4 °F 36.5 °F 30.02 in WNW 3.8 mph 6.9 mph 61 % 0.00 in
12:36 49.6 °F 36.7 °F 30.02 in WNW 6.8 mph 16.1 mph 61 % 0.00 in
12:41 49.7 °F 36.8 °F 30.02 in North 5.1 mph 12.7 mph 61 % 0.00 in
12:46 49.9 °F 36.1 °F 30.01 in NW 6.8 mph 12.7 mph 59 % 0.00 in
12:51 49.9 °F 36.1 °F 30.01 in WNW 6.9 mph 11.5 mph 59 % 0.00 in
12:56 50.0 °F 36.7 °F 30.01 in NW 6.4 mph 10.4 mph 60 % 0.00 in
13:01 50.0 °F 36.2 °F 30.01 in NW 6.0 mph 11.5 mph 59 % 0.00 in
13:07 50.1 °F 36.3 °F 30.01 in NNW 4.7 mph 6.9 mph 59 % 0.00 in
13:12 50.1 °F 35.9 °F 30.01 in NW 4.9 mph 11.5 mph 58 % 0.00 in
13:17 50.3 °F 36.9 °F 30.01 in NW 4.6 mph 8.1 mph 60 % 0.00 in
13:22 50.4 °F 37.4 °F 30.01 in NW 5.1 mph 8.0 mph 61 % 0.00 in
13:27 50.5 °F 36.3 °F 30.01 in North 6.9 mph 10.4 mph 58 % 0.00 in
13:32 50.6 °F 36.8 °F 30.01 in WNW 2.9 mph 5.0 mph 59 % 0.00 in
13:37 50.6 °F 36.4 °F 30.01 in North 4.4 mph 11.5 mph 58 % 0.00 in
13:42 50.4 °F 36.6 °F 30.01 in WNW 6.2 mph 12.7 mph 59 % 0.00 in
13:47 50.2 °F 36.0 °F 30.01 in West 7.0 mph 10.4 mph 58 % 0.00 in
13:52 49.9 °F 35.7 °F 30.01 in NNW 6.2 mph 11.5 mph 58 % 0.00 in
13:57 49.7 °F 35.5 °F 30.01 in NNW 5.3 mph 10.4 mph 58 % 0.00 in
14:02 49.5 °F 35.3 °F 30.01 in WNW 4.5 mph 9.2 mph 58 % 0.00 in
14:08 49.4 °F 35.7 °F 30.01 in North 2.6 mph 4.6 mph 59 % 0.00 in
14:13 49.3 °F 35.1 °F 30.01 in NW 6.6 mph 8.1 mph 58 % 0.00 in
14:18 49.4 °F 35.2 °F 30.01 in North 5.3 mph 9.2 mph 58 % 0.00 in
14:23 49.4 °F 35.2 °F 30.01 in WNW 4.9 mph 10.4 mph 58 % 0.00 in
14:28 49.5 °F 35.3 °F 30.01 in West 4.9 mph 6.9 mph 58 % 0.00 in
14:33 49.5 °F 34.9 °F 30.01 in WNW 5.1 mph 11.5 mph 57 % 0.00 in
14:38 49.5 °F 35.8 °F 30.02 in NW 4.2 mph 9.2 mph 59 % 0.00 in
14:43 49.3 °F 35.1 °F 30.02 in NW 3.6 mph 10.4 mph 58 % 0.00 in
14:48 49.2 °F 35.5 °F 30.02 in NW 3.4 mph 5.0 mph 59 % 0.00 in
14:53 49.1 °F 35.4 °F 30.02 in NW 6.9 mph 8.1 mph 59 % 0.00 in
14:59 49.0 °F 34.9 °F 30.02 in WNW 3.2 mph 5.8 mph 58 % 0.00 in
15:04 48.9 °F 34.3 °F 30.02 in NW 5.3 mph 10.4 mph 57 % 0.00 in
15:09 48.7 °F 34.1 °F 30.02 in WNW 8.0 mph 12.7 mph 57 % 0.00 in
15:14 48.6 °F 34.5 °F 30.02 in NW 4.3 mph 5.8 mph 58 % 0.00 in
15:19 48.5 °F 34.8 °F 30.02 in NNW 4.7 mph 8.1 mph 59 % 0.00 in
15:24 48.4 °F 35.1 °F 30.02 in WNW 5.9 mph 9.2 mph 60 % 0.00 in
15:29 48.2 °F 35.0 °F 30.03 in WNW 2.5 mph 4.6 mph 60 % 0.00 in
15:34 48.1 °F 34.9 °F 30.03 in West 3.8 mph 6.9 mph 60 % 0.00 in
15:39 47.9 °F 35.1 °F 30.03 in WNW 7.5 mph 13.8 mph 61 % 0.00 in
15:44 47.7 °F 34.9 °F 30.03 in NW 5.6 mph 11.5 mph 61 % 0.00 in
15:49 47.5 °F 34.7 °F 30.03 in West 4.4 mph 10.4 mph 61 % 0.00 in
15:55 47.3 °F 34.5 °F 30.03 in WNW 3.8 mph 6.9 mph 61 % 0.00 in
16:00 47.2 °F 34.4 °F 30.03 in WNW 4.9 mph 8.1 mph 61 % 0.00 in
16:05 47.1 °F 33.9 °F 30.03 in South 2.4 mph 5.8 mph 60 % 0.00 in
16:10 46.9 °F 33.7 °F 30.03 in West 2.9 mph 9.0 mph 60 % 0.00 in
16:15 46.7 °F 33.5 °F 30.03 in WSW 3.9 mph 7.0 mph 60 % 0.00 in
16:20 46.6 °F 33.0 °F 30.04 in SW 6.4 mph 10.4 mph 59 % 0.00 in
16:25 46.5 °F 33.4 °F 30.04 in SSW 3.2 mph 11.5 mph 60 % 0.00 in
16:30 46.3 °F 33.2 °F 30.04 in WNW 5.9 mph 9.2 mph 60 % 0.00 in
16:35 46.3 °F 32.7 °F 30.04 in WNW 4.9 mph 11.5 mph 59 % 0.00 in
16:41 46.2 °F 32.7 °F 30.04 in WSW 4.5 mph 10.4 mph 59 % 0.00 in
16:46 46.1 °F 33.4 °F 30.04 in West 4.6 mph 7.0 mph 61 % 0.00 in
16:51 46.0 °F 32.9 °F 30.04 in NW 4.1 mph 11.5 mph 60 % 0.00 in
16:56 45.9 °F 32.8 °F 30.05 in WNW 6.2 mph 11.5 mph 60 % 0.00 in
17:01 45.9 °F 32.4 °F 30.05 in WNW 4.0 mph 8.1 mph 59 % 0.00 in
17:06 45.9 °F 32.8 °F 30.05 in West 6.9 mph 15.0 mph 60 % 0.00 in
17:11 45.8 °F 32.7 °F 30.05 in WNW 5.7 mph 13.0 mph 60 % 0.00 in
17:16 45.8 °F 32.7 °F 30.05 in NW 3.8 mph 12.0 mph 60 % 0.00 in
17:17 45.8 °F 32.7 °F 30.05 in NW 4.8 mph 13.0 mph 60 % 0.00 in
17:22 45.8 °F 33.1 °F 30.06 in WSW 0.7 mph 4.6 mph 61 % 0.00 in
17:27 45.8 °F 33.1 °F 30.06 in West 4.4 mph 10.4 mph 61 % 0.00 in
17:33 45.8 °F 32.7 °F 30.06 in WNW 5.2 mph 9.0 mph 60 % 0.00 in
17:38 45.8 °F 32.7 °F 30.06 in WNW 8.8 mph 16.0 mph 60 % 0.00 in
17:43 45.7 °F 33.0 °F 30.06 in NW 6.2 mph 11.0 mph 61 % 0.00 in
17:48 45.7 °F 32.6 °F 30.06 in WSW 4.5 mph 15.0 mph 60 % 0.00 in
17:53 45.7 °F 32.6 °F 30.06 in NW 7.4 mph 13.8 mph 60 % 0.00 in
17:58 45.8 °F 33.1 °F 30.06 in NW 7.5 mph 12.7 mph 61 % 0.00 in
18:03 45.8 °F 33.1 °F 30.07 in NW 3.9 mph 12.0 mph 61 % 0.00 in
18:08 45.8 °F 33.1 °F 30.07 in NW 8.4 mph 12.7 mph 61 % 0.00 in
18:13 45.9 °F 33.6 °F 30.07 in WNW 4.8 mph 12.0 mph 62 % 0.00 in
18:18 45.9 °F 33.2 °F 30.07 in West 6.7 mph 12.7 mph 61 % 0.00 in
18:24 45.9 °F 32.8 °F 30.07 in West 4.8 mph 8.1 mph 60 % 0.00 in
18:29 45.9 °F 33.6 °F 30.07 in NW 3.8 mph 6.9 mph 62 % 0.00 in
18:34 45.8 °F 33.5 °F 30.07 in WNW 7.0 mph 8.1 mph 62 % 0.00 in
18:39 45.8 °F 33.5 °F 30.07 in NW 5.5 mph 13.0 mph 62 % 0.00 in
18:44 45.8 °F 33.5 °F 30.07 in NW 5.0 mph 12.7 mph 62 % 0.00 in
18:49 45.7 °F 33.8 °F 30.07 in NNW 9.5 mph 15.0 mph 63 % 0.00 in
18:54 45.6 °F 33.7 °F 30.07 in West 4.5 mph 8.1 mph 63 % 0.00 in
18:59 45.5 °F 34.0 °F 30.07 in West 5.2 mph 12.7 mph 64 % 0.00 in
19:04 45.4 °F 33.5 °F 30.07 in SW 5.2 mph 12.7 mph 63 % 0.00 in
19:09 45.3 °F 34.2 °F 30.07 in WNW 6.3 mph 11.5 mph 65 % 0.00 in
19:15 45.2 °F 34.1 °F 30.07 in WNW 5.1 mph 8.1 mph 65 % 0.00 in
19:20 45.1 °F 34.0 °F 30.07 in WNW 7.5 mph 13.8 mph 65 % 0.00 in
19:25 45.1 °F 34.4 °F 30.07 in WNW 5.4 mph 11.5 mph 66 % 0.00 in
19:30 45.0 °F 34.3 °F 30.07 in WNW 2.0 mph 14.0 mph 66 % 0.00 in
19:35 44.9 °F 34.2 °F 30.07 in WSW 3.7 mph 6.9 mph 66 % 0.00 in
19:45 44.6 °F 34.0 °F 30.07 in West 2.0 mph 7.0 mph 66 % 0.00 in
19:50 44.5 °F 33.8 °F 30.08 in WNW 4.5 mph 9.0 mph 66 % 0.00 in
19:55 44.5 °F 33.8 °F 30.08 in NW 5.0 mph 9.0 mph 66 % 0.00 in
20:00 44.4 °F 34.1 °F 30.07 in West 4.8 mph 6.9 mph 67 % 0.00 in
20:05 44.4 °F 34.1 °F 30.08 in West 5.4 mph 9.2 mph 67 % 0.00 in
20:10 44.4 °F 34.1 °F 30.07 in WSW 2.0 mph 8.1 mph 67 % 0.00 in
20:15 44.4 °F 34.1 °F 30.07 in West 5.8 mph 12.0 mph 67 % 0.00 in
20:20 44.5 °F 34.6 °F 30.08 in West 4.1 mph 5.8 mph 68 % 0.00 in
20:25 44.5 °F 34.2 °F 30.08 in NW 5.3 mph 10.4 mph 67 % 0.00 in
20:31 44.5 °F 34.2 °F 30.07 in West 5.1 mph 7.0 mph 67 % 0.00 in
20:36 44.4 °F 34.5 °F 30.07 in WNW 2.2 mph 4.6 mph 68 % 0.00 in
20:41 44.4 °F 34.5 °F 30.07 in NNW 5.5 mph 13.8 mph 68 % 0.00 in
20:46 44.4 °F 34.5 °F 30.07 in West 5.5 mph 10.4 mph 68 % 0.00 in
20:51 44.3 °F 34.4 °F 30.08 in West 4.6 mph 6.9 mph 68 % 0.00 in
20:56 44.3 °F 34.4 °F 30.08 in NW 8.1 mph 11.5 mph 68 % 0.00 in
21:01 44.3 °F 34.4 °F 30.08 in West 5.3 mph 9.2 mph 68 % 0.00 in
21:06 44.2 °F 34.3 °F 30.08 in WSW 5.4 mph 9.2 mph 68 % 0.00 in
21:11 44.2 °F 34.3 °F 30.08 in WNW 6.4 mph 10.4 mph 68 % 0.00 in
21:16 44.2 °F 34.3 °F 30.08 in WNW 6.3 mph 10.4 mph 68 % 0.00 in
21:21 44.2 °F 33.9 °F 30.08 in WNW 1.7 mph 9.2 mph 67 % 0.00 in
21:27 44.2 °F 34.3 °F 30.08 in SW 4.1 mph 8.1 mph 68 % 0.00 in
21:32 44.1 °F 34.2 °F 30.08 in NW 1.7 mph 10.4 mph 68 % 0.00 in
21:37 44.1 °F 34.6 °F 30.08 in WNW 6.1 mph 11.5 mph 69 % 0.00 in
21:42 44.0 °F 34.1 °F 30.08 in WNW 4.1 mph 9.2 mph 68 % 0.00 in
21:47 44.0 °F 34.1 °F 30.08 in West 5.0 mph 9.0 mph 68 % 0.00 in
21:52 44.0 °F 34.5 °F 30.07 in WNW 2.5 mph 9.2 mph 69 % 0.00 in
21:57 43.9 °F 34.0 °F 30.07 in WNW 2.4 mph 6.9 mph 68 % 0.00 in
22:02 43.8 °F 33.9 °F 30.07 in NW 4.6 mph 9.2 mph 68 % 0.00 in
22:07 43.8 °F 34.3 °F 30.07 in West 5.5 mph 10.4 mph 69 % 0.00 in
22:12 43.7 °F 34.2 °F 30.07 in WNW 3.5 mph 9.2 mph 69 % 0.00 in
22:17 43.7 °F 34.2 °F 30.07 in NW 4.8 mph 5.8 mph 69 % 0.00 in
22:22 43.6 °F 34.1 °F 30.07 in West 5.5 mph 8.0 mph 69 % 0.00 in
22:28 43.5 °F 34.4 °F 30.07 in WNW 4.6 mph 9.2 mph 70 % 0.00 in
22:33 43.5 °F 34.4 °F 30.08 in West 5.4 mph 9.2 mph 70 % 0.00 in
22:38 43.4 °F 34.3 °F 30.08 in WNW 1.5 mph 9.2 mph 70 % 0.00 in
22:43 43.3 °F 34.2 °F 30.08 in WSW 6.0 mph 12.7 mph 70 % 0.00 in
22:48 43.3 °F 34.2 °F 30.08 in WSW 5.4 mph 11.5 mph 70 % 0.00 in
22:53 43.3 °F 34.5 °F 30.08 in NW 7.7 mph 11.5 mph 71 % 0.00 in
22:58 43.3 °F 34.2 °F 30.08 in WNW 6.2 mph 12.7 mph 70 % 0.00 in
23:03 43.4 °F 34.6 °F 30.08 in NW 9.1 mph 15.0 mph 71 % 0.00 in
23:08 43.4 °F 34.6 °F 30.08 in SW 5.5 mph 11.5 mph 71 % 0.00 in
23:14 43.4 °F 34.6 °F 30.08 in WNW 5.0 mph 9.2 mph 71 % 0.00 in
23:19 43.3 °F 34.5 °F 30.09 in NW 7.1 mph 9.0 mph 71 % 0.00 in
23:24 43.3 °F 34.9 °F 30.09 in WNW 4.5 mph 12.0 mph 72 % 0.00 in
23:29 43.3 °F 34.9 °F 30.08 in WNW 6.9 mph 8.0 mph 72 % 0.00 in
23:34 43.2 °F 34.8 °F 30.08 in West 9.3 mph 19.0 mph 72 % 0.00 in
23:39 43.3 °F 34.9 °F 30.08 in West 6.7 mph 10.4 mph 72 % 0.00 in
23:44 43.2 °F 34.8 °F 30.08 in WNW 5.7 mph 11.5 mph 72 % 0.00 in
23:49 43.2 °F 34.8 °F 30.08 in West 6.6 mph 10.4 mph 72 % 0.00 in
23:54 43.2 °F 34.8 °F 30.08 in WNW 2.7 mph 9.2 mph 72 % 0.00 in
23:59 43.2 °F 34.8 °F 30.08 in West 9.7 mph 15.0 mph 72 % 0.00 in
Crab Meadow Weather
Compliments of Weather Underground - 3 mb

Script developed by  Jim McMurry - jmcmurry@mwt.net Adapted for the template by  Wim van der Kuil - Leuven-Template.eu

Weather Terms: Severe Thunderstorm Warning - A severe thunderstorm is indicated by Doppler radar or sighted by skywarn spotters. A severe thunderstorm contains large damaging hail, 1 inch diameter or larger, and/or damaging winds of around 60 mph or greater. These warnings are issued on a county by county basis by the local Weather Forecast Office in Upton.